Theta_e
306 306 307 308 310 315 317 315 311 311 311 308 309 308 308 311 314 316 314 327 333 335 338 338 337 340 343 343 343 341 343 345 345 344 342 346 345 346 346 340 336 336 343 348 347 347 347 346 344 341 339 338 335 332 330 329 328 328 328 329 329 327 326 327 331 333 337 338 338 337 337 338 335 332 333 331 328 327 328 330 333 332 327 327 335 338 338 338 336 337 337 337 337 336 337 337 337
306 308 307 310 313 317 317 313 311 311 310 307 309 310 310 312 314 316 314 327 337 338 341 340 340 342 342 342 342 342 344 344 343 342 343 345 345 347 345 340 336 337 344 347 346 346 347 346 345 342 339 338 336 333 331 329 329 329 329 329 329 328 326 326 328 331 334 335 335 334 334 334 331 329 331 331 329 330 333 336 338 337 332 325 328 335 338 336 336 336 337 336 336 335 336 336 336
307 309 309 313 314 315 316 313 311 310 308 305 308 311 313 315 319 321 318 330 342 338 338 338 339 339 340 343 342 344 345 343 343 343 345 346 346 347 346 340 337 340 345 346 345 346 346 347 346 344 340 338 337 334 332 330 329 328 329 329 329 329 328 327 327 329 330 332 332 332 332 332 329 328 330 331 332 333 336 338 338 338 337 333 330 334 337 336 336 335 336 336 335 335 335 335 334
308 311 311 315 315 315 317 314 312 309 306 305 311 317 319 323 330 330 324 333 340 332 334 337 339 337 339 345 343 346 345 344 344 344 345 347 346 347 346 340 339 342 344 344 344 344 345 347 347 345 342 340 338 335 332 331 329 328 329 329 330 330 330 329 327 327 329 330 332 333 333 333 332 331 334 334 335 336 337 337 337 337 337 337 336 336 336 336 336 336 336 336 335 335 334 334 334
310 313 313 315 316 316 316 314 313 309 306 309 317 323 325 330 336 335 330 334 334 330 333 336 339 337 339 343 340 344 345 344 345 346 347 347 348 347 345 342 341 343 343 343 343 343 344 345 347 346 344 341 339 336 333 332 330 329 329 329 330 331 331 331 330 330 330 331 332 333 334 334 335 335 336 337 337 338 338 337 337 337 337 337 337 336 336 335 336 335 335 335 334 334 333 333 333
311 313 313 314 315 315 315 313 312 311 309 313 320 326 327 332 337 335 333 332 330 330 333 334 338 339 343 343 341 344 343 345 346 347 347 348 348 347 345 342 342 342 342 342 342 342 341 343 345 347 346 344 341 338 336 333 331 329 329 329 330 331 331 331 332 332 332 332 332 333 333 335 336 335 336 337 338 338 337 336 335 335 336 335 335 336 335 335 335 334 334 334 334 333 333 333 332
311 314 315 315 314 313 316 314 313 313 312 312 318 323 324 329 333 331 330 330 330 332 335 336 337 342 345 342 342 344 343 345 346 347 348 348 348 346 344 342 342 342 341 342 341 341 340 340 343 345 346 345 342 340 337 335 333 331 330 329 330 331 331 332 332 334 334 334 333 333 332 334 336 336 337 338 339 338 337 334 333 333 333 334 334 336 335 334 334 334 335 333 332 332 331 332 331
312 314 313 314 315 313 316 315 314 314 312 312 314 317 317 322 327 328 329 330 331 332 337 337 334 341 342 340 343 345 345 346 347 348 348 348 346 344 343 341 341 341 341 341 340 342 339 338 342 344 345 345 342 341 339 337 335 333 331 329 329 330 331 332 332 333 333 334 333 333 332 334 335 337 337 338 339 338 337 333 332 331 330 332 332 335 335 333 334 334 333 330 329 331 331 331 330
311 313 312 313 315 313 314 313 313 313 313 314 314 314 315 317 320 323 325 325 329 332 337 336 333 340 342 342 346 345 346 348 348 348 347 347 345 343 342 339 340 341 342 341 340 341 339 337 339 341 343 344 343 342 342 340 337 335 333 330 329 330 331 332 332 333 333 334 334 333 333 333 334 337 337 338 339 338 336 333 331 331 330 331 331 333 335 334 334 334 332 329 328 331 331 331 331
312 312 313 314 313 312 312 311 312 312 313 314 313 314 315 316 316 318 318 319 327 333 336 334 335 341 342 344 345 345 347 348 347 347 346 346 344 342 340 337 340 342 342 341 341 340 339 338 338 340 342 343 343 342 343 342 339 336 334 331 330 330 332 333 332 333 333 333 335 334 333 332 334 337 338 338 337 337 335 332 331 331 331 331 330 331 333 333 334 333 332 330 329 330 330 330 332
313 310 311 313 312 311 310 311 312 313 314 313 313 313 313 314 315 315 315 315 326 334 335 335 339 342 342 343 344 345 347 348 347 347 346 345 343 340 338 338 340 341 341 341 342 341 340 340 338 338 340 343 343 343 344 343 340 338 334 332 331 331 333 334 333 333 332 332 334 335 333 333 334 335 337 337 336 336 334 332 331 330 330 331 330 330 332 332 333 333 332 330 329 329 328 329 330
314 311 311 313 312 311 311 312 312 314 315 313 314 314 312 312 313 314 314 314 324 333 334 335 338 340 343 343 344 346 347 348 347 346 345 344 342 340 338 340 340 340 342 341 342 343 342 341 339 339 340 341 342 343 343 343 342 340 337 334 332 333 334 334 334 334 333 332 332 333 334 334 334 334 334 336 336 336 334 333 331 329 329 331 331 330 330 331 332 332 331 329 329 328 327 328 328
313 311 313 312 311 312 312 311 312 315 316 314 315 313 311 313 313 314 314 314 323 331 333 336 337 339 343 344 344 346 347 347 346 346 345 343 342 340 339 339 340 341 342 341 342 343 341 341 340 339 338 339 340 341 341 342 343 342 340 337 335 335 335 335 336 335 335 334 333 334 334 335 336 333 330 332 335 336 335 332 330 329 327 329 331 330 329 328 329 329 329 330 329 328 328 329 328
312 310 313 312 309 312 312 311 311 312 313 314 314 310 310 312 312 313 313 315 323 330 333 337 337 340 344 344 345 346 347 347 346 346 344 343 342 341 340 340 341 341 341 341 342 342 341 340 340 340 339 339 340 340 341 341 342 342 341 340 337 335 335 337 336 336 338 337 335 335 335 336 337 332 328 331 334 335 334 330 329 328 326 326 329 330 330 327 327 326 327 327 328 328 328 329 328
310 309 312 312 310 310 310 311 311 311 312 313 312 310 310 312 312 312 313 315 324 331 335 339 337 337 342 344 344 344 346 347 346 346 344 343 342 341 341 340 341 341 341 340 341 341 340 339 339 341 341 341 341 341 341 341 341 342 341 342 340 337 335 336 336 337 338 339 337 337 336 337 336 331 328 327 328 331 332 330 329 327 325 323 324 328 332 330 328 326 325 324 325 325 324 326 326
308 309 311 312 309 309 309 310 311 311 313 313 310 310 313 315 314 314 316 320 328 332 334 338 334 331 338 342 342 343 346 347 346 345 344 344 343 342 342 341 341 340 340 340 340 339 336 336 338 339 341 341 341 340 341 341 341 341 341 341 341 339 338 336 336 336 336 337 338 337 336 338 336 330 327 324 321 325 328 332 330 326 325 323 321 323 329 332 331 328 325 324 324 322 321 321 321
307 310 311 311 309 309 310 311 311 311 312 313 310 309 314 320 320 321 324 327 333 333 332 336 333 330 337 341 343 345 347 346 346 345 344 344 343 342 342 341 341 340 340 339 339 337 333 332 334 336 337 339 340 339 339 340 339 340 340 341 341 341 340 338 337 336 336 336 337 337 336 336 335 331 329 325 322 321 324 330 331 327 325 323 321 320 324 330 332 332 329 326 325 323 320 320 320
308 311 311 310 310 310 311 312 311 310 311 312 312 309 312 321 326 326 328 331 332 332 333 337 338 336 340 343 344 346 346 347 346 345 345 344 343 343 342 341 341 340 339 339 337 335 332 331 333 333 333 336 339 339 339 339 339 339 340 340 341 341 340 339 338 337 335 334 335 336 334 333 332 331 330 327 325 324 323 326 330 330 325 322 322 321 321 326 331 333 332 328 327 324 322 321 322
309 311 310 310 311 311 311 311 310 311 312 311 312 309 310 321 325 324 328 331 331 334 337 340 340 341 343 344 346 346 346 347 346 345 345 343 343 343 342 341 341 340 338 338 337 333 331 333 334 334 332 332 337 339 339 339 339 338 339 339 339 340 339 338 339 337 335 334 333 334 334 331 329 330 331 328 327 326 324 326 331 331 326 322 322 323 321 323 328 332 332 330 328 326 324 323 323
309 309 310 311 311 311 310 311 310 310 310 311 311 309 313 318 318 323 329 330 332 335 338 340 342 342 342 343 345 346 346 346 345 345 345 343 342 342 341 340 340 339 338 338 336 332 331 334 334 335 333 331 335 337 338 339 339 338 337 338 338 339 339 338 338 336 335 334 332 331 331 328 328 332 331 331 330 328 327 328 331 331 327 325 323 323 323 324 327 329 331 332 331 328 326 325 324
307 308 310 310 309 310 311 311 310 310 309 309 309 309 314 315 317 325 329 329 332 334 336 338 340 341 342 344 345 346 346 345 345 344 343 343 342 341 340 339 339 339 338 338 337 334 332 333 335 335 335 332 333 334 334 335 336 337 337 337 338 339 338 337 336 333 332 332 331 331 330 327 329 333 332 332 333 331 330 330 331 331 329 328 325 325 327 326 326 328 330 332 333 330 327 326 324
308 309 310 310 308 309 311 311 310 310 308 309 310 310 313 315 321 327 328 331 330 328 328 332 338 341 342 344 345 346 346 345 345 343 342 342 341 340 340 338 339 338 338 338 338 336 333 333 335 336 336 335 335 334 333 332 331 332 334 335 337 338 337 336 335 332 331 332 332 331 330 329 331 332 331 331 333 334 333 331 332 331 330 331 328 326 327 326 325 325 327 330 332 330 327 326 324
309 309 309 310 308 309 310 310 311 310 308 309 310 309 310 317 324 325 326 325 320 316 318 330 339 341 343 344 345 346 345 343 342 342 341 341 340 339 339 338 337 337 337 337 336 336 335 334 335 337 337 336 336 336 336 335 333 330 329 331 333 336 336 335 335 333 334 333 332 331 328 329 330 330 328 329 331 334 334 332 332 330 329 330 327 326 325 323 324 323 322 326 330 329 327 326 324
308 308 309 310 309 309 309 310 309 308 309 310 309 309 310 317 323 322 324 319 313 316 321 334 339 341 343 343 345 345 342 340 340 340 340 339 339 338 337 336 336 336 336 336 335 335 335 335 335 336 336 336 336 336 337 337 336 333 329 330 331 332 333 334 333 333 334 334 333 332 328 328 328 328 328 330 332 334 334 332 331 330 328 329 326 325 322 320 321 322 321 324 327 327 325 325 324
307 308 309 309 309 309 310 309 308 308 308 308 308 309 310 313 316 320 324 317 315 322 330 337 338 339 340 341 344 342 338 338 338 338 337 337 337 336 335 334 334 335 335 334 333 332 333 334 335 335 335 335 335 335 336 336 336 335 333 332 332 331 331 332 332 331 333 334 334 333 330 328 327 327 329 331 333 334 334 333 331 329 327 327 325 323 321 319 320 320 322 324 325 325 324 324 324
309 309 310 309 310 309 308 307 308 309 308 308 309 311 309 307 312 319 319 316 320 328 335 337 338 339 339 340 340 338 336 336 337 336 334 334 334 333 332 332 333 334 334 332 331 331 332 333 334 334 334 334 334 333 333 334 335 336 335 333 333 332 330 331 332 332 332 332 332 332 332 331 330 330 330 332 333 332 333 333 332 330 328 326 323 321 320 320 320 320 322 324 324 324 325 326 326
309 309 309 309 309 308 307 307 308 309 308 309 311 311 309 307 312 317 315 316 323 330 335 337 338 339 338 338 337 336 336 335 335 333 331 330 331 332 331 333 334 333 333 331 331 331 332 333 333 334 334 333 332 330 329 330 332 334 334 334 334 333 333 333 332 333 334 333 331 332 332 333 333 332 332 333 333 332 332 333 333 332 331 327 322 320 321 320 319 320 322 323 324 326 328 328 328
308 308 309 309 309 308 307 309 309 309 309 309 311 311 310 309 312 313 312 316 323 329 334 335 338 338 336 335 334 333 333 332 331 329 330 329 330 331 331 334 335 334 332 330 331 332 333 334 334 334 333 332 331 329 326 327 331 333 334 334 335 334 335 334 331 333 336 336 334 333 333 333 333 332 332 333 333 333 333 333 334 334 332 328 321 319 322 322 320 320 322 324 326 327 328 328 327
307 307 309 310 310 310 308 309 309 309 310 308 309 311 311 312 311 310 311 316 321 328 332 334 335 333 332 332 330 329 330 329 326 328 330 329 330 331 333 334 334 333 331 330 332 333 335 335 336 336 334 333 332 330 326 327 331 331 333 334 334 334 335 335 333 333 335 336 335 333 333 333 333 333 333 332 332 334 334 333 333 333 333 330 324 318 321 324 323 322 324 326 327 326 326 326 326
308 307 308 310 311 311 309 309 309 310 310 309 310 310 311 313 311 308 312 317 322 327 329 331 331 328 329 329 327 326 326 326 325 326 329 328 330 331 333 335 333 332 332 333 334 334 336 337 338 337 336 335 331 328 326 326 327 328 331 333 334 333 333 334 333 333 333 333 334 333 332 332 332 333 332 331 332 333 334 333 333 333 334 333 328 321 318 322 324 325 325 326 326 325 325 325 326
309 307 308 310 309 309 309 309 310 311 309 310 311 310 311 314 310 307 311 317 322 325 327 327 326 326 326 327 326 324 324 325 324 324 325 326 328 330 332 334 333 333 333 335 336 335 337 338 338 337 336 334 329 326 325 324 323 324 330 332 331 328 327 329 331 332 331 330 330 329 328 328 328 329 330 330 330 333 333 333 333 333 334 334 333 327 321 321 322 323 324 324 324 323 326 327 329
309 309 309 310 309 309 310 309 310 312 309 310 311 310 311 311 308 306 310 317 321 323 325 325 325 324 325 326 325 324 322 322 321 321 322 323 325 328 331 333 333 335 334 335 336 337 338 337 337 335 334 331 326 324 323 322 322 323 327 328 325 323 323 327 330 330 329 326 326 326 325 327 328 327 329 329 330 333 333 333 333 333 334 334 334 332 328 324 322 323 324 324 325 326 328 331 332
310 311 312 311 310 311 311 310 309 310 310 311 310 310 312 311 308 306 309 316 320 321 323 323 323 323 324 325 324 324 321 320 319 319 320 321 323 327 331 332 332 334 334 335 336 338 338 335 333 331 330 327 324 323 322 322 321 323 325 323 322 321 323 326 327 326 325 324 325 325 325 328 329 329 330 331 331 332 332 333 331 331 332 332 331 332 330 328 326 328 329 328 328 327 328 330 331
312 313 314 311 311 311 312 312 311 311 312 312 310 310 312 310 308 308 308 313 319 321 322 321 322 322 323 325 324 323 321 320 320 320 320 319 320 324 328 330 330 331 332 333 335 337 335 331 329 328 326 324 323 322 321 321 320 320 323 322 320 320 321 323 324 324 324 324 323 323 324 326 328 329 330 330 331 331 331 332 331 330 330 329 329 330 331 330 330 330 329 328 327 326 326 327 329
313 315 315 312 311 311 312 312 312 312 312 311 311 311 312 311 309 310 308 310 317 321 320 320 320 321 322 324 323 322 321 320 321 321 320 318 318 320 322 325 326 328 330 332 335 334 331 328 327 326 325 324 322 321 320 319 318 318 321 322 320 318 321 323 323 324 323 323 321 321 322 323 325 326 326 328 328 328 328 329 330 329 330 328 327 330 331 331 330 329 327 328 327 327 328 329 331
313 315 314 313 312 312 313 312 311 311 311 311 313 312 312 312 310 310 310 310 315 319 319 320 319 319 320 321 322 322 321 321 320 319 318 316 316 317 319 321 323 325 327 330 331 330 328 326 326 325 324 323 321 320 319 317 317 319 320 321 319 318 321 322 323 323 322 321 320 320 320 321 323 323 323 324 325 325 325 326 327 328 329 328 326 328 329 329 330 330 329 329 328 328 330 330 332
315 315 314 313 313 313 313 312 310 311 311 311 315 316 314 314 313 313 313 311 313 317 320 320 319 318 319 319 321 322 322 320 319 318 317 316 316 315 317 318 320 322 324 326 327 326 325 324 325 325 324 322 320 319 317 316 317 318 319 318 317 318 321 323 323 322 320 320 320 319 318 318 318 318 320 321 322 324 324 325 326 326 327 326 326 327 328 328 329 330 330 330 330 329 329 331 331
316 315 314 313 313 313 313 313 312 311 312 313 315 316 315 316 316 316 316 314 312 315 318 319 319 318 319 319 320 321 322 319 317 319 318 316 315 315 315 316 318 319 321 323 325 324 323 322 324 325 323 321 320 318 315 315 315 316 317 316 314 317 321 322 321 317 316 317 317 315 314 313 312 315 320 321 323 324 324 324 325 326 326 325 327 328 328 329 329 329 329 329 330 330 331 331 331
316 314 314 314 312 312 313 315 315 312 312 314 314 315 316 318 318 318 318 317 317 317 316 318 319 319 319 318 320 321 321 320 319 319 320 318 317 315 314 315 316 318 320 322 322 323 322 322 323 324 323 321 319 316 315 314 313 314 315 313 313 316 319 318 314 311 313 315 314 314 313 312 314 316 320 321 321 322 323 324 324 325 326 326 327 327 328 329 329 329 328 328 328 329 330 331 331
315 314 313 315 314 314 314 316 319 315 313 315 314 314 317 321 319 318 316 315 318 318 315 315 315 317 319 318 319 321 321 322 321 320 320 319 318 316 315 315 316 317 318 319 321 321 321 321 322 323 322 321 318 316 315 313 312 314 313 312 311 313 314 313 312 312 313 314 315 315 313 314 317 318 319 319 319 319 321 322 323 323 324 324 325 325 326 327 328 328 327 327 327 326 327 330 330
317 318 315 315 316 315 313 316 320 317 314 315 314 313 315 319 319 316 314 312 315 315 313 314 313 312 315 316 318 320 321 323 322 321 320 319 320 318 317 316 316 316 317 318 320 320 319 319 320 321 321 320 318 316 314 311 313 314 312 312 311 310 311 312 314 314 314 315 316 314 313 315 317 316 317 318 317 318 319 321 322 322 322 322 323 323 323 323 325 327 327 328 328 328 328 330 330
317 320 319 317 318 318 317 318 319 315 314 314 314 311 312 317 318 316 315 315 316 314 313 314 312 310 311 313 316 318 320 322 322 321 321 321 321 320 318 316 317 317 316 317 318 318 318 318 319 320 320 319 317 315 312 310 312 313 311 311 310 310 312 313 313 313 313 315 316 314 313 315 315 316 316 317 317 318 319 320 321 321 321 321 321 321 321 321 321 323 325 326 328 328 330 330 330
314 319 320 318 318 320 320 318 316 313 313 314 313 313 313 315 316 315 315 316 316 316 316 313 310 310 310 311 314 316 318 320 321 321 320 321 321 320 319 317 317 318 317 316 317 317 317 317 317 319 319 318 316 313 311 310 313 313 310 309 308 309 310 310 310 311 312 314 315 313 313 315 316 317 317 318 318 318 318 319 319 320 320 319 319 320 320 320 319 319 321 322 324 326 328 328 328
315 317 317 314 316 321 320 317 315 314 313 315 314 313 313 314 315 315 313 314 315 315 316 314 311 310 310 311 312 313 315 318 320 320 320 320 321 320 320 318 317 317 317 316 316 316 317 316 316 317 318 317 315 312 311 311 313 312 311 310 308 308 308 308 309 311 312 313 314 314 313 315 317 317 317 317 316 316 317 317 315 314 314 313 313 314 314 315 316 316 317 319 320 322 323 324 325
316 314 312 312 315 320 321 316 314 314 313 313 313 312 313 314 315 315 312 312 315 315 314 313 312 311 310 310 310 309 311 313 316 319 320 320 321 321 320 319 318 317 317 316 316 316 316 316 316 316 318 317 314 312 311 311 312 312 311 311 311 309 308 308 309 310 312 313 314 314 313 315 316 316 316 314 313 314 314 311 308 307 306 305 305 306 306 307 309 310 312 314 316 317 318 320 320
314 310 309 309 311 315 317 315 313 314 313 312 315 315 313 313 314 313 312 314 314 313 313 312 312 311 310 310 309 308 308 308 310 314 318 320 321 321 320 319 318 317 316 316 316 316 316 315 315 316 316 316 314 312 312 312 313 313 312 311 312 311 310 309 309 310 311 313 314 314 313 314 315 316 315 312 310 311 309 306 305 305 303 303 303 303 303 304 305 306 308 310 311 312 313 315 315
311 310 310 309 310 312 313 312 312 312 312 313 315 314 312 312 312 312 313 313 311 311 312 312 312 310 309 309 308 308 307 306 307 309 314 319 320 320 319 318 318 316 316 316 316 315 315 315 314 315 316 315 314 313 313 312 313 313 312 311 311 313 312 311 309 310 311 312 313 314 313 313 314 315 314 311 309 308 306 305 306 306 304 303 302 302 303 303 303 304 305 306 307 308 309 310 310
309 312 312 312 312 313 312 311 311 312 312 312 310 311 312 312 313 313 312 311 310 310 311 311 310 309 308 308 307 307 306 305 305 306 310 316 319 319 319 319 318 316 315 316 316 315 315 315 314 314 315 315 315 314 314 313 313 313 313 311 311 312 313 312 311 310 310 310 311 313 313 313 315 315 313 312 310 307 306 307 307 307 306 304 303 302 302 303 303 303 304 304 305 306 307 308 308
310 313 314 314 313 312 311 311 311 311 312 310 308 310 312 312 312 313 312 311 310 310 310 309 309 308 308 307 307 307 306 306 306 306 309 314 318 320 320 320 318 317 316 316 316 315 315 315 313 313 313 315 315 315 315 314 314 313 313 312 311 312 314 314 312 311 310 308 308 311 312 312 314 314 312 312 310 308 307 308 308 309 308 305 304 303 303 303 303 303 304 304 305 306 306 306 307
312 314 314 316 314 311 312 311 309 311 312 310 308 310 311 312 312 311 311 310 309 309 308 307 307 307 307 306 306 306 307 307 308 308 310 314 318 320 320 320 319 318 317 317 316 316 316 315 313 311 312 312 313 314 315 314 314 314 313 312 311 311 313 314 313 312 311 309 308 308 308 308 310 310 309 309 310 309 309 309 309 309 309 307 305 304 304 303 303 304 305 304 305 306 305 306 306
310 311 312 314 314 312 312 311 310 311 312 310 309 311 312 313 312 310 310 309 308 307 307 306 306 306 306 306 306 306 307 307 309 310 311 315 318 320 320 320 319 318 317 317 316 316 316 315 313 312 311 312 312 313 315 315 315 315 314 313 312 311 312 313 313 312 312 312 309 307 306 306 306 306 306 307 309 310 310 310 311 310 310 309 306 305 305 304 303 304 304 304 305 305 305 306 306
308 307 310 313 314 314 312 310 310 311 310 311 311 311 312 312 310 309 310 308 307 306 305 306 306 306 306 307 307 307 307 307 309 310 312 314 318 319 319 319 318 318 317 317 317 316 316 315 313 313 313 313 313 314 315 316 316 316 315 315 314 313 312 313 314 313 312 312 311 309 307 307 306 306 306 307 308 310 311 312 312 311 311 309 307 305 305 305 304 304 305 305 305 306 306 306 306
308 308 310 310 309 314 314 309 308 309 310 311 310 311 311 311 311 310 309 308 306 306 306 306 306 306 307 308 307 307 307 307 308 309 310 313 317 318 319 319 318 318 317 316 316 316 316 316 315 314 313 313 314 315 315 316 316 317 317 317 316 315 314 313 314 313 312 312 313 312 309 308 307 306 307 308 308 310 312 313 312 312 312 310 307 306 305 305 305 305 305 306 306 306 306 306 306
309 309 311 308 307 312 314 310 308 309 311 310 309 310 311 311 312 311 308 308 307 307 306 306 306 306 306 307 307 307 308 308 308 308 308 311 314 317 318 318 318 318 317 316 316 316 316 316 316 315 314 313 313 314 315 315 316 317 317 318 318 316 314 313 313 313 313 312 313 313 311 309 308 307 308 308 309 310 312 314 313 313 312 310 308 306 306 305 305 305 305 305 306 306 306 305 305
308 309 309 309 311 312 312 311 311 310 310 310 309 309 310 311 312 310 309 309 308 307 307 306 306 306 305 305 306 306 308 309 309 308 308 309 312 314 315 317 317 317 317 316 316 316 316 316 315 316 316 315 314 313 313 314 315 316 317 318 317 316 315 314 313 313 313 312 312 313 313 311 309 308 308 308 309 310 312 313 314 313 312 310 308 306 306 306 305 305 306 305 305 305 305 305 304
307 308 307 308 312 313 312 311 312 311 310 310 310 309 310 311 311 311 311 309 308 308 307 307 306 305 305 305 305 306 307 309 309 308 309 308 310 312 312 313 314 315 316 316 316 316 316 316 316 316 316 316 316 314 314 314 314 315 316 317 317 316 315 314 313 313 313 312 312 313 314 313 310 309 308 308 309 310 311 313 314 313 312 310 308 306 306 306 306 306 306 305 304 304 304 304 304
309 310 310 309 309 309 310 311 310 310 310 309 309 310 311 311 311 311 310 309 308 308 308 308 306 305 305 305 305 306 307 308 308 308 308 309 310 310 309 310 310 312 313 314 315 316 316 316 316 316 316 316 317 316 316 315 314 314 315 316 316 316 315 315 314 313 312 312 313 312 314 314 312 310 309 309 309 310 311 313 314 313 311 309 307 306 306 306 306 305 305 304 303 303 303 303 303
309 311 310 311 310 309 310 310 308 308 310 309 309 310 311 312 311 311 311 310 309 307 307 307 305 304 305 306 306 306 307 307 307 307 307 308 309 308 308 308 308 308 309 310 312 313 314 315 316 316 317 317 317 317 317 316 316 315 314 314 315 315 314 314 314 313 312 312 313 313 314 314 313 312 311 310 309 310 312 313 314 313 310 308 307 306 306 306 306 305 304 303 303 303 303 302 302
Wind_Speed
1 1 1 1 2 1 1 1 1 1 0 1 1 1 1 1 2 3 3 3 2 2 1 1 7 8 6 5 8 6 4 5 5 2 1 2 7 12 13 17 24 24 20 16 18 19 19 20 20 21 21 21 22 22 22 22 23 23 22 22 22 21 21 21 20 20 20 21 20 19 18 18 17 17 16 16 15 14 14 14 13 13 12 12 12 13 12 12 12 12 12 13 13 14 14 13 13
1 0 1 1 2 1 2 1 1 1 0 1 1 1 1 1 3 4 2 1 2 4 4 6 9 7 7 8 9 7 4 2 1 1 3 6 13 11 12 20 24 22 18 15 18 18 19 21 20 21 21 21 22 22 23 23 23 23 22 22 22 22 21 21 21 21 21 20 19 17 16 17 17 17 16 15 15 14 13 13 13 12 12 12 12 13 13 12 12 12 12 13 13 13 14 13 13
1 0 1 4 2 1 2 0 1 1 1 2 1 1 1 2 5 4 2 1 6 6 5 7 8 6 5 8 6 3 3 1 2 3 5 11 13 10 14 21 22 19 15 14 17 16 19 20 20 21 20 21 21 22 23 23 24 22 22 22 21 21 21 21 21 21 21 20 18 17 16 16 17 16 15 14 14 13 13 12 12 12 12 12 12 14 14 13 12 12 12 12 12 13 13 12 13
0 1 4 4 1 0 2 0 1 1 2 2 0 1 2 4 5 4 2 4 6 2 2 4 5 3 1 7 4 2 4 3 4 6 6 10 12 12 15 19 19 16 14 14 14 15 16 19 19 20 20 20 21 21 22 22 22 22 22 21 21 21 21 20 20 20 19 19 18 17 16 16 16 15 14 14 14 13 13 12 12 12 11 11 13 14 15 13 12 12 12 12 12 12 13 12 12
0 3 3 2 1 1 1 1 1 2 2 1 0 1 2 2 2 3 5 4 1 1 1 2 3 2 1 5 1 1 5 5 6 8 9 10 12 14 14 17 18 14 14 14 14 14 14 17 17 18 19 19 20 20 21 22 22 22 22 21 21 21 20 20 19 18 17 16 16 16 16 15 15 15 15 14 14 13 13 12 12 13 12 11 12 14 15 14 13 12 12 12 12 12 12 12 12
1 4 3 1 1 0 1 1 2 2 1 1 0 1 1 0 3 6 5 2 1 2 2 1 2 5 4 5 2 3 4 4 8 9 10 13 14 15 15 16 16 14 13 13 13 13 14 16 15 16 17 18 20 19 19 20 21 22 22 21 21 21 20 19 19 18 17 15 14 14 14 14 14 14 14 14 15 14 13 12 11 13 14 13 12 14 15 15 14 13 13 13 13 12 12 12 12
2 3 2 2 2 1 1 1 1 1 1 2 2 1 0 1 4 2 2 1 2 4 3 4 4 5 5 3 3 5 2 3 8 9 11 14 15 15 15 16 16 14 13 13 13 12 15 17 14 15 15 17 20 19 18 18 20 22 22 21 20 20 19 19 18 18 17 16 14 13 13 13 12 12 14 14 15 14 12 11 11 13 14 13 13 14 15 15 15 15 14 14 13 13 13 13 12
1 1 1 1 1 1 1 1 1 1 1 2 4 3 2 2 1 1 2 1 1 2 4 5 3 2 4 1 3 4 3 6 9 12 14 15 15 15 15 16 17 14 13 13 13 12 14 16 14 12 12 16 18 19 18 17 18 20 21 21 20 19 19 19 18 16 15 15 14 13 13 13 12 11 13 14 14 14 12 10 11 12 13 12 13 14 15 15 16 16 15 15 14 13 13 12 13
2 1 1 1 1 1 1 1 1 1 3 4 5 6 4 4 3 2 1 1 1 2 4 3 4 1 5 4 4 3 4 9 13 15 15 15 16 15 15 17 17 15 14 13 13 13 14 14 13 12 11 13 17 18 17 17 17 18 20 20 20 19 18 18 18 16 14 13 12 12 13 12 12 10 12 14 14 14 12 10 11 13 12 11 12 14 16 16 16 15 14 15 15 14 13 13 12
1 2 1 1 1 2 1 1 0 1 5 6 5 7 6 5 5 4 5 4 1 3 5 3 5 4 6 5 5 2 5 12 15 15 14 15 16 15 16 17 17 16 15 13 12 13 13 14 13 13 11 11 14 17 17 17 17 18 19 20 20 19 18 18 17 16 15 13 12 11 12 12 12 10 11 13 14 14 12 10 11 13 12 10 11 14 15 16 15 13 13 15 15 14 13 12 9
0 2 1 1 2 2 1 1 1 2 5 6 6 7 6 6 5 6 6 5 2 3 5 3 3 7 6 5 3 1 7 13 15 15 14 15 16 17 17 15 15 15 15 14 13 13 12 12 13 12 11 11 11 14 16 17 18 18 18 19 19 19 18 17 16 16 15 14 13 12 11 11 12 11 12 12 12 13 12 11 10 13 13 10 10 12 14 14 14 13 13 15 15 14 12 10 7
1 1 0 1 1 1 1 1 1 3 4 4 5 2 4 6 5 5 8 8 5 5 6 5 5 6 5 4 2 3 10 13 14 16 15 15 16 16 16 14 14 15 14 15 14 13 12 11 11 11 11 11 10 10 12 14 16 17 17 18 18 18 17 16 16 15 15 15 14 13 12 11 11 11 11 11 11 11 10 10 9 11 12 11 9 10 12 13 14 14 14 15 13 13 11 9 8
1 1 1 1 0 1 2 1 1 3 3 3 3 1 4 6 6 8 8 9 9 9 7 8 9 6 4 4 3 5 11 13 15 16 16 16 15 15 15 14 13 13 13 14 14 13 12 11 10 10 10 10 8 8 9 12 14 15 16 17 17 18 17 16 16 14 14 14 14 14 13 12 11 10 10 10 10 10 9 9 8 8 9 10 10 9 10 12 13 14 15 14 13 12 11 10 8
1 1 1 1 1 1 2 1 1 2 2 2 2 1 2 4 5 6 6 9 10 6 6 9 11 8 5 5 4 6 11 15 17 16 17 16 15 14 15 14 13 12 12 13 13 13 12 11 10 9 10 10 9 8 8 10 12 14 15 15 17 18 18 17 16 15 14 14 15 15 14 13 12 11 9 9 8 9 9 8 8 7 7 8 9 9 9 10 12 13 14 14 13 12 11 11 9
1 1 0 2 1 1 2 2 0 1 1 1 1 2 3 3 3 4 7 10 6 3 7 8 5 5 7 8 6 9 14 19 18 16 17 16 15 14 13 13 12 12 12 12 12 11 11 11 11 10 10 10 9 9 9 10 11 13 13 13 16 18 18 18 17 16 14 13 14 14 14 13 13 11 10 8 7 8 8 8 9 8 6 6 7 9 8 9 10 11 12 13 13 13 12 11 9
1 1 1 1 1 1 2 2 1 1 1 1 1 4 5 1 2 3 5 5 7 5 5 6 3 1 7 8 7 15 19 20 19 18 18 17 16 14 13 12 12 12 11 11 10 10 12 12 12 11 10 10 10 10 9 9 10 11 11 12 15 17 18 18 18 16 14 13 11 12 13 13 12 11 10 8 7 8 7 8 9 7 7 6 6 7 8 8 9 10 11 11 12 12 11 10 9
1 1 1 1 1 2 3 3 3 0 3 4 2 4 6 3 1 1 1 6 11 8 2 3 1 2 5 7 12 21 21 20 21 20 19 18 17 15 14 12 12 12 10 10 9 9 12 14 13 13 12 10 10 10 9 9 9 10 10 11 12 15 17 16 17 16 14 12 10 12 13 13 12 11 10 8 6 6 7 8 8 7 7 6 5 6 8 8 8 10 11 10 10 11 11 10 10
1 1 1 1 2 2 3 4 2 1 5 8 7 4 5 3 4 2 3 9 11 9 5 4 5 5 6 12 20 23 20 22 22 20 20 19 18 16 14 13 12 11 10 9 8 9 12 13 12 11 11 10 9 10 10 10 10 10 10 11 10 12 15 15 16 15 13 12 11 12 13 12 11 10 11 9 6 6 7 8 9 9 8 6 5 5 7 8 8 8 10 11 10 10 10 10 10
1 2 1 2 3 3 2 3 2 3 7 10 9 5 4 4 5 3 4 10 12 11 6 5 8 8 10 16 22 22 20 23 23 20 19 18 17 15 13 12 11 10 10 9 8 11 13 12 11 10 11 10 9 9 9 9 9 9 9 10 10 11 14 15 15 14 13 12 11 12 11 10 9 9 11 11 8 7 8 9 10 11 8 6 6 5 5 9 9 7 9 12 11 10 9 9 9
1 1 2 2 3 3 3 4 6 6 7 9 8 5 2 3 2 3 6 10 10 11 9 9 10 11 14 17 21 21 20 21 20 19 18 18 16 14 13 12 12 11 9 8 8 11 12 10 9 9 10 10 8 8 8 8 8 9 8 9 10 11 13 15 15 14 13 11 11 11 10 9 7 8 9 9 9 9 10 12 12 12 9 7 7 7 6 9 10 8 8 10 11 10 9 9 8
1 2 3 2 2 4 4 5 7 6 4 4 5 5 1 1 1 4 10 9 5 8 9 8 13 17 17 18 19 20 19 19 19 19 19 18 17 15 14 13 13 11 9 8 7 10 11 9 8 9 10 10 9 8 8 7 7 8 8 9 9 11 12 14 15 14 13 12 12 12 11 10 8 7 7 6 9 11 13 14 12 12 11 8 9 8 7 9 11 10 8 8 9 10 9 8 8
2 2 3 3 2 5 6 3 5 4 2 4 5 5 1 0 2 8 13 9 3 4 5 3 11 19 20 20 19 18 17 17 19 19 19 19 18 17 15 14 13 11 9 9 8 10 11 10 8 8 9 9 9 9 9 8 7 7 7 8 9 10 11 12 14 14 14 13 14 13 12 10 8 7 7 5 8 10 12 16 14 12 11 10 9 8 8 9 10 11 9 8 8 10 10 8 8
3 2 1 4 3 4 5 2 4 1 3 6 4 3 2 1 4 7 7 3 2 2 2 4 10 16 21 22 19 19 18 18 19 19 20 20 19 17 16 15 12 11 10 9 10 10 11 11 9 8 8 8 9 8 9 8 7 7 7 7 8 9 10 10 12 12 13 15 15 14 12 10 9 9 8 7 8 9 9 15 17 13 12 10 9 8 8 9 9 11 11 10 8 8 9 8 8
3 2 2 4 3 6 7 5 4 1 5 7 1 2 3 4 3 5 5 1 3 3 4 10 12 14 18 19 18 18 18 18 19 18 18 18 18 18 16 14 11 10 10 11 12 13 13 13 11 9 9 9 8 7 7 7 8 8 7 7 7 8 9 9 9 10 12 15 16 16 12 10 10 10 10 10 8 7 7 15 17 14 13 11 10 9 8 8 10 10 11 11 8 7 7 7 7
3 3 3 2 3 7 7 5 5 4 6 5 1 2 2 2 1 5 5 1 2 1 8 14 15 15 15 15 16 15 15 16 16 16 15 13 15 15 13 13 13 11 13 16 16 16 16 15 14 12 10 9 8 7 6 6 6 7 7 7 7 7 7 8 8 9 10 12 15 15 13 11 12 11 12 12 8 7 8 14 16 14 14 11 10 9 8 8 9 9 10 11 9 6 6 6 6
4 4 2 4 5 6 5 4 5 4 3 2 1 1 3 1 1 4 2 4 2 6 10 14 16 16 14 13 14 14 15 16 16 15 13 12 14 14 14 16 17 16 17 19 19 18 17 16 15 13 11 9 7 6 4 4 4 5 6 6 7 6 7 8 8 9 9 11 12 13 12 12 13 13 15 14 11 10 10 13 15 15 14 12 11 9 7 6 7 8 9 9 8 7 7 7 6
3 4 4 7 7 4 3 3 3 2 1 1 1 2 3 2 1 1 3 3 3 8 10 12 15 15 15 14 12 12 13 14 16 15 13 13 14 15 17 20 20 20 20 20 20 19 18 16 15 13 12 10 7 6 4 4 3 3 4 5 6 6 7 9 8 8 9 11 10 10 11 12 13 14 16 14 13 14 14 14 16 15 14 12 11 9 7 6 6 7 8 8 8 8 8 7 6
2 3 5 7 4 2 2 2 2 1 1 2 0 2 1 2 1 1 3 1 3 8 10 10 12 12 13 13 11 10 10 12 14 15 16 16 17 19 22 24 23 23 23 23 22 20 19 18 16 14 12 10 8 6 5 5 3 3 4 4 4 5 6 9 10 9 7 9 10 9 9 10 11 13 14 12 12 14 13 13 16 16 14 13 12 10 8 7 7 8 8 9 8 8 7 5 4
2 1 4 6 2 1 3 2 2 2 1 1 1 2 0 1 1 2 3 0 4 8 10 9 9 9 10 10 9 8 8 11 12 14 16 18 21 25 28 28 27 27 26 24 22 21 20 19 17 16 13 11 9 7 6 5 3 3 3 3 3 4 5 7 10 11 7 6 7 7 7 7 9 11 12 11 11 11 9 12 15 18 14 13 13 11 10 9 9 9 9 9 8 6 5 5 4
2 1 2 5 2 2 6 4 2 1 1 2 3 1 0 1 3 3 3 2 8 8 9 8 7 7 8 9 7 8 8 10 12 12 15 19 23 27 29 29 29 28 27 24 23 22 20 18 16 15 13 11 10 9 7 5 4 3 3 2 3 3 2 0 4 9 8 5 3 2 2 3 5 8 9 8 9 9 8 9 13 18 16 13 13 12 12 11 11 11 10 9 8 7 7 7 6
1 0 1 2 0 2 6 4 4 2 1 2 1 2 2 2 4 4 3 2 8 8 9 8 7 7 7 8 8 9 9 9 10 10 15 21 23 26 28 29 29 28 27 26 25 23 20 17 15 13 12 11 11 9 8 6 4 4 4 4 5 5 4 5 4 3 4 2 1 2 3 2 2 3 5 6 7 8 5 5 9 15 14 10 11 13 13 13 13 12 11 10 10 9 8 8 8
2 1 0 1 0 2 4 3 5 3 1 3 1 2 3 2 5 4 2 2 6 7 9 9 9 9 8 8 9 9 8 7 7 9 14 19 22 25 28 29 30 30 29 28 26 23 20 17 14 13 12 12 11 11 9 8 6 6 7 7 7 7 7 7 6 6 5 4 4 5 4 4 2 1 2 3 4 5 3 4 7 12 14 12 10 11 12 13 13 12 11 10 10 9 8 7 7
2 2 0 1 1 1 2 2 5 4 2 3 3 2 2 2 4 4 2 2 5 6 8 9 9 9 9 9 8 8 7 6 8 11 15 20 22 26 28 29 30 30 29 28 26 24 21 18 15 13 13 13 12 11 10 9 8 8 9 8 8 8 8 9 7 6 6 6 7 6 6 5 4 3 2 2 1 2 2 2 4 7 13 14 11 11 13 14 13 10 9 8 8 9 10 10 9
1 1 1 0 1 1 2 1 4 6 3 3 3 2 3 2 3 2 2 2 5 7 8 9 9 8 9 8 8 8 7 8 10 12 16 20 22 25 26 27 29 28 27 26 25 24 22 19 17 15 14 14 13 12 11 9 9 8 8 8 7 7 8 9 8 8 7 6 6 6 6 6 6 6 5 4 4 2 1 1 1 2 6 9 10 14 14 13 13 13 11 10 11 12 14 14 13
2 1 2 1 1 1 2 1 3 7 4 2 1 2 3 3 4 2 3 2 4 6 5 6 7 7 8 8 8 8 8 9 9 8 11 16 20 22 23 24 26 26 24 24 24 24 22 20 19 17 16 16 14 13 11 10 9 8 8 7 7 7 8 8 8 7 7 6 6 5 5 5 6 6 6 6 5 5 4 3 3 3 5 4 5 12 15 12 13 15 17 16 15 15 16 15 13
1 1 2 2 1 1 2 1 3 5 2 1 0 2 3 4 4 2 2 2 4 5 3 4 5 6 7 7 8 7 9 10 5 3 7 13 17 20 21 21 23 23 23 24 25 24 23 21 20 20 19 17 16 14 13 12 11 10 10 9 8 8 8 7 6 6 6 6 6 5 4 6 6 6 6 6 6 6 6 5 5 2 5 5 3 5 10 12 12 15 17 19 18 16 17 16 12
2 2 2 1 1 1 1 1 2 2 1 1 1 2 3 4 5 3 1 2 4 6 5 6 6 7 7 9 10 10 10 7 2 3 7 12 16 19 19 19 21 21 22 25 26 25 24 23 22 22 22 19 17 15 14 13 13 13 11 10 9 9 8 7 6 5 5 6 6 5 5 5 6 7 7 7 7 8 8 6 6 4 2 3 2 4 5 6 9 11 11 16 18 17 17 15 10
2 2 2 1 2 2 0 0 2 2 2 1 1 2 3 3 4 3 1 1 5 7 8 8 9 9 7 9 11 11 8 4 4 5 6 11 16 19 19 19 21 22 24 27 27 27 25 24 23 24 24 22 19 16 14 13 13 12 11 10 9 9 8 7 6 5 5 6 7 7 6 6 6 8 9 10 10 11 11 10 8 6 5 4 4 4 4 4 5 7 7 9 13 13 15 13 10
2 2 2 2 2 2 2 1 2 2 1 1 1 2 3 2 4 4 2 3 3 3 6 7 9 10 9 10 11 9 7 6 7 7 7 11 15 18 19 20 22 23 26 28 28 27 26 25 24 25 25 23 20 16 14 12 11 10 9 8 9 9 8 7 6 6 8 8 8 8 7 8 10 11 11 10 11 12 12 12 12 10 7 6 5 5 5 6 5 3 4 5 7 9 11 12 12
2 2 2 1 1 1 1 1 1 2 1 1 1 2 3 2 1 1 2 3 3 2 2 4 6 9 9 10 9 9 10 10 10 9 7 9 13 17 20 21 23 23 25 28 29 28 27 26 26 26 26 24 21 18 15 13 12 10 8 8 8 8 8 7 7 8 8 8 8 8 8 10 12 12 11 10 10 11 11 12 12 12 11 9 8 8 8 7 6 5 4 4 6 8 9 9 9
1 3 3 2 1 2 2 1 2 1 1 2 2 3 2 1 1 2 1 3 3 2 2 2 4 6 6 6 7 9 11 10 11 11 9 10 13 16 19 21 23 24 27 30 32 31 29 28 27 27 27 25 22 20 17 15 14 13 10 9 8 7 8 8 7 7 7 7 7 7 9 10 10 10 10 10 10 10 10 10 11 11 11 11 11 11 11 11 9 7 6 6 6 7 7 6 4
2 4 7 5 3 3 2 1 1 1 0 3 4 4 1 2 1 1 1 3 2 1 2 2 2 3 4 6 8 9 10 10 11 12 11 12 13 14 16 20 23 25 29 33 34 32 30 29 28 28 27 26 24 21 19 17 17 15 13 13 11 9 9 8 7 7 7 7 6 7 9 9 9 9 9 9 10 10 11 11 11 11 11 10 10 10 11 10 10 9 7 5 4 4 5 4 3
1 3 6 6 4 3 3 2 1 1 2 2 2 4 3 1 1 1 2 5 4 2 1 2 1 1 4 6 8 8 10 10 10 11 12 13 14 15 17 22 25 27 31 33 33 32 31 30 29 29 28 27 26 23 21 19 19 17 15 14 13 12 11 9 7 7 7 7 7 8 9 10 9 10 10 10 10 10 11 11 11 11 11 11 10 10 10 10 10 10 9 8 6 5 4 5 5
1 1 5 7 5 4 4 2 1 1 1 0 1 1 3 4 1 1 2 4 3 3 4 5 2 2 4 6 7 8 10 10 10 11 13 13 16 19 21 24 28 30 32 32 33 33 32 30 29 29 29 29 27 25 23 22 20 19 16 15 14 13 11 8 8 8 7 7 7 7 9 10 10 10 10 9 9 9 10 11 12 12 13 12 12 11 11 10 10 9 9 9 9 8 7 6 7
1 2 4 5 4 3 3 2 2 1 2 2 1 1 3 3 1 1 1 2 2 4 7 9 7 5 5 6 7 9 11 11 12 13 13 14 17 21 22 23 25 29 31 32 34 33 32 30 29 30 30 30 29 27 25 24 21 19 17 16 15 14 11 9 8 9 9 8 8 7 8 10 9 9 9 9 10 11 12 14 14 15 14 14 13 13 12 11 10 10 10 10 10 11 10 9 9
1 5 5 5 5 5 3 2 2 2 2 4 1 1 3 3 1 1 2 2 3 6 7 8 8 9 9 8 7 9 10 11 12 13 13 14 15 16 16 16 19 26 30 30 31 32 31 31 30 31 31 31 30 29 27 25 23 21 19 17 17 16 14 12 10 11 11 10 9 8 8 9 9 8 8 10 12 14 14 15 15 16 16 15 15 15 14 14 13 12 11 11 11 12 12 12 12
4 5 5 5 4 3 2 2 2 1 3 4 1 1 2 4 1 1 1 2 4 6 6 7 9 11 12 11 10 10 9 10 9 10 12 11 9 10 12 14 18 24 25 26 29 30 31 31 30 31 32 32 32 31 29 27 25 23 21 18 18 18 17 15 13 12 13 12 11 10 9 9 9 9 9 10 12 13 14 14 15 16 16 16 16 16 16 16 15 14 13 12 12 12 12 12 12
4 2 3 3 1 1 1 1 1 3 4 1 2 1 3 4 1 2 1 4 4 5 6 8 10 11 12 11 11 11 9 9 8 8 8 8 8 11 15 16 19 23 25 26 29 30 30 30 30 30 32 34 33 33 32 30 27 25 23 20 19 19 19 18 16 15 14 13 13 12 11 10 10 10 10 10 10 11 12 12 13 14 15 15 15 15 16 16 16 15 15 14 13 13 12 11 12
2 2 3 3 1 1 1 1 1 4 3 1 2 1 3 4 3 1 2 4 4 4 5 8 10 11 12 12 12 10 9 8 6 5 5 7 9 11 14 16 19 24 25 28 30 29 29 31 31 31 33 35 35 34 34 32 29 27 25 22 20 20 20 20 19 18 16 14 13 14 14 13 13 12 12 11 10 10 10 10 11 12 14 14 14 14 14 14 15 16 16 15 15 14 13 12 13
5 3 3 4 2 1 2 2 1 3 2 2 1 1 2 2 1 1 2 3 4 5 5 7 8 10 10 10 10 9 9 8 4 2 3 5 7 9 12 13 15 17 20 24 27 29 32 34 33 33 34 36 36 35 35 34 31 28 26 24 21 21 21 22 21 20 18 17 15 14 14 14 14 14 13 12 11 10 9 8 9 10 11 12 12 13 13 13 14 15 15 15 15 13 13 13 12
2 1 2 3 3 2 3 3 3 4 0 2 0 2 2 1 1 2 2 3 4 4 5 6 6 6 7 7 7 9 9 8 5 3 3 2 3 7 9 10 10 11 14 18 23 28 31 30 30 32 32 34 35 35 35 35 33 30 27 25 23 22 22 22 23 23 21 19 17 16 15 14 13 13 13 13 12 11 9 8 7 8 9 10 10 10 11 12 12 13 13 14 13 12 11 11 10
1 1 1 2 3 3 1 1 1 1 0 1 2 2 1 1 2 2 1 2 3 3 4 4 5 6 5 5 8 10 10 9 8 6 5 4 3 5 7 9 10 10 12 14 19 26 27 24 25 27 27 29 31 31 31 31 31 31 29 27 25 24 23 24 25 25 24 22 19 17 16 14 12 12 13 13 12 11 10 9 8 7 7 8 8 9 10 10 11 12 12 11 11 10 9 9 8
2 2 3 1 0 3 3 0 2 1 3 2 1 2 1 1 2 2 1 2 1 2 4 4 7 8 7 8 9 9 10 10 10 9 7 5 5 5 6 9 10 11 12 14 18 24 25 23 23 22 23 26 26 25 25 27 29 30 29 28 27 26 25 25 26 26 26 24 22 20 17 15 14 13 13 13 13 12 11 10 9 8 7 7 7 7 8 8 9 10 10 10 9 8 8 8 7
2 3 4 3 1 2 2 1 2 1 4 2 1 2 3 3 3 4 4 3 1 2 4 5 7 9 9 9 9 9 10 9 10 11 9 8 8 7 6 6 8 11 14 17 20 24 25 26 24 20 21 23 21 20 24 28 31 31 30 29 28 28 27 26 26 27 27 25 23 22 19 17 15 13 13 14 13 13 12 11 10 9 7 6 6 6 6 6 7 8 9 9 8 7 7 6 6
1 1 3 2 2 2 2 1 2 2 3 1 2 2 3 5 3 5 8 6 2 1 3 5 7 8 8 8 9 10 10 9 9 10 10 9 9 10 10 8 5 5 11 15 19 22 24 26 25 23 22 22 21 23 26 29 31 30 31 32 31 29 29 28 27 27 28 27 25 23 22 20 17 15 14 15 14 14 13 12 12 10 9 7 5 5 4 4 5 7 8 7 6 6 6 5 5
2 2 2 0 2 2 2 1 1 3 3 1 2 2 3 4 4 7 10 7 4 2 2 4 5 6 5 6 7 8 8 8 8 9 10 10 12 13 16 17 13 7 5 8 12 14 16 20 22 22 23 22 23 25 26 28 28 28 30 32 32 32 30 29 29 29 29 29 27 25 24 22 20 17 16 16 16 15 14 14 13 12 11 9 7 6 4 3 4 6 6 6 5 5 5 5 5
2 3 3 2 1 0 1 1 1 1 3 2 3 4 3 2 2 7 10 8 5 4 3 3 3 4 3 4 5 5 6 7 8 9 9 10 12 14 17 22 23 18 14 10 6 5 6 10 13 15 19 20 23 25 26 27 27 27 29 30 31 31 30 30 31 31 32 31 29 27 26 24 22 20 18 18 17 17 16 16 16 14 12 10 9 7 6 5 5 5 5 5 5 5 5 5 5
1 2 3 3 3 2 3 3 1 0 2 2 2 3 2 2 1 4 5 5 4 3 2 2 3 2 2 3 4 5 5 6 7 8 8 8 10 12 14 18 22 23 21 18 16 12 7 2 2 6 10 14 17 21 24 26 28 29 31 32 32 31 30 30 32 33 34 34 32 30 28 26 24 22 21 19 19 18 18 17 17 16 13 11 10 8 7 7 6 5 5 5 4 4 4 4 4
Wind_Direction
207 188 287 336 2 171 109 5 210 83 296 256 269 268 220 220 320 271 190 171 178 141 205 134 138 134 121 130 142 104 58 160 152 153 185 57 120 137 137 143 150 147 140 140 150 153 150 153 151 151 152 153 151 150 148 145 141 136 131 128 128 130 133 135 139 142 142 141 138 136 134 133 133 132 131 131 128 126 128 129 128 126 126 126 128 128 130 134 137 141 141 140 137 136 136 135 135
167 51 307 125 75 170 151 318 238 84 230 238 234 177 4 287 259 244 185 181 133 124 133 117 114 91 79 100 120 114 70 44 18 67 74 124 131 125 137 146 149 145 139 141 150 154 154 155 154 152 153 154 153 151 150 147 143 139 135 131 131 133 134 137 140 141 142 142 139 137 134 133 132 132 133 132 128 126 128 130 131 130 127 127 131 131 133 136 139 142 142 142 141 140 138 137 137
151 71 181 149 84 6 136 296 231 130 196 243 234 168 318 282 255 264 287 111 111 126 130 115 105 78 103 125 132 138 108 88 130 116 108 143 139 124 137 143 146 140 134 141 147 154 156 156 156 153 153 155 154 153 151 149 146 142 138 134 134 134 136 138 140 141 142 142 140 139 137 137 137 137 138 137 133 130 130 133 136 131 129 130 132 133 133 136 138 142 143 143 143 143 141 140 140
157 152 171 169 131 8 133 85 138 165 196 240 245 155 281 278 284 299 232 146 116 144 144 129 105 45 181 137 129 85 114 149 146 134 132 151 144 131 135 140 140 132 131 139 145 152 156 157 157 154 154 155 154 154 153 152 148 144 141 137 136 136 137 138 139 141 143 144 145 144 143 143 143 144 145 143 139 136 137 139 140 134 132 132 132 133 133 135 138 140 142 142 142 143 143 141 140
117 136 162 202 207 134 127 91 106 199 203 196 9 26 284 272 321 73 141 154 120 318 102 141 99 73 45 87 81 109 119 128 137 143 138 142 141 135 133 136 133 125 131 138 144 149 155 158 160 156 154 155 154 155 156 154 151 147 144 141 139 138 139 139 138 140 142 147 149 148 148 148 150 153 150 148 144 145 147 145 143 139 138 136 134 134 134 137 138 140 141 142 142 143 142 139 138
145 132 96 72 111 55 157 149 143 204 194 184 304 55 298 153 107 104 125 163 95 53 71 81 108 131 98 68 55 88 109 128 143 146 136 136 139 138 131 130 127 122 128 132 141 146 154 160 161 159 156 154 151 154 159 157 154 150 147 144 142 140 140 139 138 140 143 147 148 150 150 151 155 158 156 153 151 153 154 146 141 144 146 143 138 138 137 138 139 141 142 142 141 141 140 138 140
164 153 58 91 106 337 191 157 162 205 153 186 293 123 233 106 141 111 86 150 119 58 58 80 94 124 99 91 102 73 51 140 146 139 135 137 137 136 128 126 122 120 125 127 134 141 154 162 161 159 159 154 150 154 160 162 157 152 150 148 145 143 142 141 141 142 145 146 148 152 153 155 158 160 159 157 156 159 157 143 137 148 154 148 142 142 141 140 141 143 144 144 143 143 144 143 145
130 159 319 166 119 17 158 111 158 248 198 203 271 238 256 339 205 295 41 83 113 62 88 81 39 118 101 84 117 65 52 120 133 129 131 132 133 132 126 127 121 119 125 126 130 135 150 160 158 154 158 156 155 158 160 163 159 153 152 151 149 146 144 143 144 145 145 145 148 150 152 155 156 159 160 159 160 161 160 146 138 149 155 149 145 144 144 143 144 149 150 150 151 149 149 147 146
52 22 210 190 138 114 124 98 176 250 263 236 246 244 260 289 288 298 297 316 155 129 126 87 358 121 120 83 100 89 87 118 126 128 131 129 132 130 128 134 125 122 126 126 130 133 143 152 153 153 155 156 161 164 161 161 160 156 154 153 152 150 148 146 147 148 146 146 148 147 148 150 148 152 157 159 163 162 164 153 141 149 155 152 149 146 144 145 149 156 157 155 155 152 148 145 144
43 15 164 127 146 209 188 182 153 200 260 262 258 246 235 235 249 260 265 274 212 139 130 99 31 87 112 96 99 96 114 127 129 129 131 129 132 131 131 136 127 126 128 126 126 129 137 146 151 154 152 153 162 168 167 162 160 160 157 157 156 154 151 148 148 147 145 147 149 148 148 145 139 143 151 159 164 162 163 157 144 150 157 156 156 153 148 149 155 158 158 156 153 150 147 144 146
141 31 147 181 174 230 216 200 238 222 256 288 285 247 219 213 224 243 255 267 244 168 153 139 93 100 95 94 98 126 135 134 132 129 131 131 132 133 131 129 128 128 127 126 125 127 133 143 150 153 151 148 156 167 171 169 165 165 163 160 159 156 151 150 150 150 149 149 151 152 152 146 138 143 150 155 161 158 159 158 148 150 157 162 163 162 155 152 154 156 156 156 153 151 149 146 155
193 65 111 200 199 237 163 196 252 258 264 285 286 242 179 180 195 224 221 224 208 186 186 166 151 130 102 98 97 144 145 141 136 132 134 133 129 133 131 123 127 126 124 126 125 127 130 136 142 149 151 146 150 160 166 167 166 167 167 166 164 159 155 154 155 156 155 152 152 156 159 153 144 146 147 148 154 156 160 161 153 149 156 166 169 167 164 157 154 157 160 162 160 157 157 160 168
156 137 158 164 322 140 142 239 275 284 278 247 256 113 138 164 198 224 210 210 195 189 192 154 145 134 105 114 120 154 153 147 142 138 138 134 129 128 126 122 124 125 125 127 126 127 129 130 132 140 147 148 151 157 161 161 162 164 166 172 169 161 159 159 161 163 160 157 158 161 163 158 152 151 146 148 153 154 161 161 154 151 155 165 176 176 171 167 163 163 167 173 173 170 170 173 176
153 150 196 149 68 144 154 257 243 265 267 243 255 97 182 203 237 229 195 197 191 183 155 135 142 131 114 139 160 179 161 153 148 144 140 134 131 127 124 125 126 128 130 130 131 129 125 125 126 130 138 143 149 156 162 162 162 164 167 175 174 168 166 167 169 169 168 165 164 165 166 161 157 154 148 149 153 155 158 160 156 159 159 160 177 187 181 174 170 171 176 182 182 183 182 180 184
160 136 94 128 120 189 196 250 218 218 253 247 278 339 281 252 257 211 196 199 179 139 124 132 164 139 159 174 175 178 161 155 152 147 142 135 135 132 128 129 131 132 132 134 135 132 127 126 127 128 132 139 146 151 157 160 161 164 167 172 177 178 175 177 176 172 174 172 169 169 167 163 159 157 154 149 152 156 159 167 162 163 172 165 174 189 195 187 178 176 180 187 188 189 187 186 195
134 131 72 122 143 224 193 202 184 209 276 237 199 333 315 292 209 213 226 192 127 146 147 145 206 65 173 177 155 161 157 154 152 147 143 138 137 136 136 137 137 137 135 138 137 135 136 135 133 133 135 137 141 145 150 155 158 161 165 168 178 182 180 182 181 177 176 176 176 174 171 167 161 160 160 158 157 156 162 177 173 171 182 181 181 187 199 202 190 183 182 188 192 192 187 184 190
164 147 91 134 178 225 199 192 193 224 317 292 311 359 318 322 117 215 229 138 131 144 110 110 145 18 161 151 140 151 152 152 152 151 148 144 142 140 145 147 143 143 143 143 138 137 138 135 135 137 138 136 135 139 142 146 151 156 162 168 177 181 184 185 183 182 179 177 179 178 177 171 166 168 170 174 175 164 171 186 189 190 187 188 200 193 195 206 203 191 184 185 190 192 187 178 179
181 129 146 197 190 216 198 195 199 292 318 305 315 351 287 273 113 113 123 125 126 124 86 68 81 67 118 130 141 148 148 148 151 156 150 147 150 145 148 152 148 145 145 146 142 141 138 134 134 136 139 139 136 135 137 141 145 152 158 163 169 177 182 182 181 182 179 179 176 175 179 175 175 179 176 178 188 182 181 197 202 197 195 198 210 204 193 201 208 195 183 184 187 190 189 182 180
147 110 205 217 200 223 203 208 232 259 298 305 310 331 274 232 129 152 153 136 140 134 113 95 100 107 127 136 145 149 148 144 149 156 148 148 156 150 146 149 149 148 148 146 143 144 141 136 135 138 142 144 140 136 138 140 144 152 156 158 165 170 174 176 177 179 178 184 181 175 181 184 183 186 186 186 194 197 194 206 208 200 202 206 207 206 195 197 205 198 181 184 187 191 192 189 188
164 159 234 233 213 254 235 222 245 254 281 296 305 327 294 224 153 173 153 144 159 156 146 139 138 142 146 149 148 150 148 142 145 152 152 156 161 156 151 153 155 156 153 147 146 148 147 141 138 141 147 149 146 143 144 142 145 154 157 160 165 166 169 173 177 179 178 183 183 180 186 194 190 189 201 203 205 212 209 211 210 203 203 208 207 198 195 197 202 200 183 181 185 192 196 195 196
158 197 235 233 172 264 253 222 248 256 255 268 301 315 261 214 210 161 148 152 187 187 180 164 157 156 154 155 152 151 148 142 147 156 161 163 163 162 160 159 158 157 154 152 155 155 154 152 145 145 151 155 154 155 153 151 153 156 160 163 165 167 171 174 179 183 182 185 184 184 190 196 197 199 214 221 222 226 220 216 214 207 202 204 205 195 197 199 200 202 194 185 184 193 201 201 199
175 209 239 235 180 264 274 244 247 247 242 259 297 311 304 16 177 163 164 172 181 186 212 190 156 158 157 158 155 152 150 150 158 163 166 166 165 164 160 158 155 154 156 160 164 163 162 164 159 150 153 158 159 164 163 161 163 165 167 165 167 170 174 179 183 187 189 192 190 190 196 198 204 212 224 238 234 240 233 216 212 210 204 202 201 198 205 204 201 203 204 206 191 188 199 205 204
226 227 244 245 212 253 276 259 240 205 289 282 293 322 317 240 176 166 180 181 22 337 226 144 153 161 157 156 155 157 160 163 165 167 169 169 167 164 162 161 157 156 160 164 167 165 165 167 166 158 158 162 161 166 167 166 171 177 177 172 174 175 178 185 189 193 195 196 195 196 203 206 214 218 224 242 238 249 243 207 203 207 203 203 203 204 213 211 208 204 205 216 203 184 192 201 206
236 249 263 256 206 231 255 254 265 286 270 275 288 309 263 224 182 163 188 196 352 309 156 134 147 160 157 157 159 161 162 163 165 168 170 171 171 167 164 163 161 162 163 167 168 165 165 167 169 168 167 167 164 167 168 169 175 181 184 181 185 183 183 186 188 196 201 204 203 202 206 211 220 225 232 242 232 237 227 192 195 203 199 202 206 208 216 214 214 209 201 206 205 192 188 193 200
204 237 255 256 210 235 256 266 281 275 256 266 262 295 263 222 214 166 185 308 355 143 139 134 144 157 160 163 160 156 157 160 162 165 167 170 170 166 164 164 164 167 168 169 169 167 168 169 172 174 175 174 171 171 170 172 174 182 189 187 190 187 185 185 187 195 203 208 207 205 208 217 225 232 240 247 240 241 226 195 195 201 197 199 204 207 218 214 213 211 198 196 203 199 187 185 188
196 225 237 250 264 266 284 294 281 272 264 266 202 41 40 20 253 162 124 10 72 130 135 137 145 159 165 166 161 157 159 162 164 165 165 164 165 165 168 169 167 171 172 171 172 172 173 174 176 179 183 182 180 181 184 186 178 180 189 191 188 188 195 190 186 196 204 208 209 207 210 219 228 235 245 254 259 264 253 217 205 202 201 200 204 207 207 204 202 202 194 192 195 189 176 168 168
181 226 251 257 278 301 302 291 278 278 356 317 209 70 11 324 247 157 55 36 134 128 135 145 148 159 167 167 167 165 163 164 164 161 158 160 167 170 171 173 172 174 176 177 179 178 178 180 182 186 189 187 187 191 206 218 210 188 190 197 188 193 211 203 193 200 209 213 213 214 215 218 226 238 249 261 270 272 266 241 219 210 209 202 205 207 190 176 178 181 182 182 177 172 170 163 161
198 248 270 271 286 296 281 276 290 314 56 333 282 93 336 308 10 13 23 12 156 133 141 155 152 154 163 165 165 167 166 164 162 161 163 168 174 174 173 175 174 177 182 184 184 183 184 186 187 191 191 190 192 193 210 232 229 201 196 199 191 196 216 213 209 208 209 211 207 213 222 224 232 246 256 268 279 274 266 252 229 218 219 209 207 206 183 161 157 162 166 172 174 176 181 183 189
235 293 290 299 336 73 355 3 322 345 48 308 221 146 148 268 353 348 340 218 146 134 144 157 158 153 156 160 162 169 169 165 171 177 175 175 177 175 175 176 176 181 187 188 186 188 190 191 192 193 192 192 192 189 203 223 218 205 200 193 191 197 215 219 217 211 201 204 208 220 235 242 251 262 270 281 292 281 266 258 230 213 219 216 210 208 192 171 161 165 166 173 185 198 216 232 249
250 38 324 314 339 40 17 3 307 25 66 293 223 218 257 261 325 351 337 169 145 135 147 159 160 153 156 163 168 173 177 177 184 188 180 177 180 179 178 178 182 186 189 190 190 193 195 195 195 192 192 191 187 181 186 197 196 197 180 158 157 163 180 182 218 214 213 224 238 245 246 259 270 275 279 285 297 288 265 262 230 211 219 223 214 210 203 191 179 176 178 191 206 220 241 258 267
306 334 50 348 301 12 16 356 333 67 112 321 241 278 298 289 336 4 353 191 160 147 155 164 164 165 166 171 178 183 190 194 192 190 185 184 184 184 183 183 187 191 193 193 193 195 196 194 193 192 192 187 179 173 170 170 162 150 132 112 103 99 98 90 95 156 183 200 141 77 77 57 346 303 288 281 293 291 265 259 237 217 219 227 223 216 209 203 198 197 198 209 223 234 245 260 268
3 312 157 354 30 2 2 15 23 53 57 346 359 283 299 333 351 6 15 212 183 161 163 170 173 173 173 178 189 191 193 199 200 199 197 194 190 189 189 189 191 195 198 197 194 195 195 192 191 192 190 181 173 168 161 158 142 129 120 107 101 94 98 111 111 109 107 98 93 89 85 74 45 359 315 298 295 296 274 242 246 233 220 216 217 213 212 208 204 208 212 219 232 245 257 269 278
4 9 100 328 22 30 356 63 52 30 357 5 20 277 274 15 358 5 43 207 197 176 173 177 179 177 181 188 193 194 192 195 206 209 205 201 197 194 194 195 197 199 201 199 194 193 191 188 186 187 184 177 173 167 159 153 143 135 128 117 111 107 111 119 119 114 107 95 88 85 80 75 62 51 35 25 7 323 311 275 274 250 226 222 216 204 211 214 208 210 216 227 244 259 271 277 287
69 36 85 330 332 15 345 24 32 11 14 35 28 277 261 331 336 343 96 169 199 190 186 185 185 186 190 194 197 199 197 202 209 208 203 202 201 198 198 200 200 200 202 198 194 192 187 182 181 182 181 179 177 170 162 157 152 150 144 134 124 121 123 124 121 117 113 102 88 81 74 74 72 67 66 68 70 65 31 349 21 185 214 233 229 211 216 223 216 218 226 236 247 256 264 271 280
149 150 124 126 228 237 317 314 12 8 16 58 28 269 275 302 301 264 131 143 203 204 199 196 195 194 196 201 206 206 206 214 216 207 201 202 201 200 200 200 200 200 199 194 191 191 185 179 179 180 181 181 180 173 166 162 159 159 155 150 145 137 133 129 125 120 114 106 93 87 77 75 78 74 72 74 76 81 79 79 92 151 185 175 199 209 218 230 228 231 234 234 240 250 258 266 275
138 134 133 133 165 237 281 281 14 359 357 101 58 285 300 299 288 258 119 107 185 196 198 207 205 201 204 212 216 217 222 224 215 193 204 202 201 202 200 199 198 197 195 189 186 188 185 181 179 179 181 182 181 176 168 162 158 158 158 156 153 147 146 141 130 118 106 103 100 96 87 79 77 74 69 67 70 74 79 87 87 115 184 154 119 184 210 226 233 239 239 229 231 244 253 259 267
104 121 150 141 205 240 266 255 35 352 256 125 86 289 289 286 287 273 3 65 177 188 193 202 206 209 208 212 218 221 227 228 194 194 204 199 200 202 200 198 196 193 191 187 186 189 188 185 182 180 181 182 184 181 171 163 160 159 159 157 154 153 154 147 135 123 109 109 109 107 102 88 79 77 72 71 76 78 83 92 96 99 140 158 147 153 171 201 221 235 235 223 226 240 250 253 253
114 159 172 168 222 240 338 317 10 355 250 157 117 275 266 268 290 287 310 213 194 190 195 200 202 208 214 216 221 224 224 218 205 205 189 189 196 199 200 198 195 192 190 189 189 191 190 188 186 184 183 183 185 184 174 168 164 162 162 160 157 157 156 149 140 130 119 116 107 97 87 71 75 83 80 82 88 89 89 94 98 105 111 125 143 139 129 144 196 226 222 212 220 231 243 242 232
129 159 196 197 212 274 287 232 345 354 265 175 134 284 285 274 284 283 269 235 218 194 205 213 203 202 211 215 221 226 223 218 214 207 186 185 190 195 199 199 198 195 192 190 190 191 190 188 188 188 187 184 183 183 180 177 169 167 169 165 161 159 157 152 139 123 117 110 96 82 66 63 75 83 83 84 88 89 92 95 96 101 107 116 121 107 111 126 138 186 200 209 218 220 228 226 223
158 165 211 218 133 278 245 178 342 8 25 354 245 277 293 297 272 253 285 283 298 322 243 233 220 213 214 216 222 222 218 216 213 207 191 182 185 193 198 199 197 195 194 191 191 192 191 190 191 191 189 185 181 181 184 184 174 172 173 166 166 163 157 150 133 120 115 108 93 77 70 77 80 81 82 81 82 86 90 94 96 98 100 102 106 97 92 100 113 139 165 187 207 211 214 218 222
200 196 216 222 181 224 249 320 320 339 99 36 317 268 264 11 42 141 69 310 290 320 314 253 232 233 237 245 244 230 223 218 210 205 193 186 192 195 195 197 195 193 196 194 192 194 192 192 193 192 190 187 182 181 186 186 177 175 172 165 166 163 158 157 148 136 126 117 100 83 85 93 88 83 82 79 80 87 93 98 101 101 101 98 97 93 84 81 90 113 136 155 177 190 194 197 198
217 217 214 207 186 194 214 298 309 253 117 45 359 284 239 50 327 171 32 328 280 238 265 248 233 242 242 245 243 236 235 228 216 209 198 193 195 191 190 194 195 195 198 196 195 195 194 194 194 192 191 189 185 183 185 184 179 177 174 171 173 172 172 175 166 148 135 126 108 89 95 101 94 87 86 84 85 88 92 100 106 105 102 98 95 92 88 80 77 83 94 110 127 147 162 162 147
209 215 191 176 157 153 162 185 220 324 328 39 3 286 275 317 301 92 348 310 296 269 280 67 71 241 230 237 240 236 235 231 224 216 205 197 192 188 190 194 195 197 199 197 195 195 194 194 194 193 192 191 188 185 183 182 181 182 183 182 185 186 184 180 165 147 135 129 115 94 95 101 97 92 92 89 87 89 92 94 100 104 100 97 96 93 89 83 76 73 74 81 87 90 107 110 95
177 160 150 152 153 159 159 160 161 358 310 310 42 323 277 281 292 42 290 282 301 335 354 10 7 267 251 250 251 251 245 234 225 221 212 203 193 190 192 196 197 197 197 196 195 195 194 194 194 194 194 193 191 187 183 182 183 184 188 193 198 199 194 183 169 162 150 140 127 105 99 104 101 95 92 88 86 91 95 95 97 99 97 92 91 90 88 86 82 77 73 77 79 72 70 78 74
358 110 126 136 133 133 137 130 117 69 283 250 107 79 267 268 268 356 335 311 337 355 343 333 331 321 290 270 266 267 266 254 237 228 219 208 200 196 195 194 194 195 196 196 196 195 194 194 195 195 194 194 194 191 185 183 186 187 190 198 207 210 208 198 182 175 169 157 147 128 114 113 110 101 93 89 93 100 100 99 95 91 87 85 86 87 87 87 86 83 78 75 77 74 71 75 73
123 133 106 86 79 73 80 101 111 94 274 260 237 73 271 271 259 340 13 22 335 333 328 319 325 327 318 311 301 283 277 269 252 240 231 218 207 199 191 185 186 192 197 197 195 194 193 194 195 195 195 196 197 194 189 187 189 192 194 201 211 216 217 214 200 188 182 172 163 154 138 128 121 114 103 95 100 106 105 99 91 84 80 81 83 85 84 83 82 82 82 80 79 77 74 76 77
143 148 105 85 72 57 62 51 77 153 244 258 343 67 251 273 273 109 335 328 310 304 306 313 324 329 325 322 319 308 294 280 263 250 243 227 204 189 184 181 182 190 196 195 194 194 193 194 196 196 197 198 199 197 194 193 192 195 198 202 212 219 222 223 216 203 193 185 178 172 161 149 139 131 123 112 110 113 109 99 90 84 81 81 83 83 82 80 79 79 80 79 77 75 73 73 74
152 164 119 120 80 65 100 63 104 231 247 279 17 13 215 246 243 109 319 305 292 279 287 307 316 319 318 319 324 323 311 293 269 248 239 215 187 178 181 180 179 187 192 192 194 195 193 195 198 198 199 201 202 201 198 198 197 197 201 205 212 221 226 229 226 218 207 198 190 184 176 167 160 151 141 132 127 125 117 104 95 88 85 85 85 85 83 80 78 77 76 74 72 70 68 68 65
191 166 142 199 234 111 227 247 194 239 254 47 16 304 217 240 268 340 326 312 308 296 293 304 308 309 313 321 327 328 326 314 278 230 216 206 188 177 181 179 177 184 189 190 193 192 191 197 201 201 202 203 205 204 202 201 201 200 202 206 213 222 230 233 232 228 221 212 203 194 187 181 176 169 160 151 144 140 129 113 103 94 90 89 89 88 84 79 76 77 77 77 76 73 71 72 67
200 178 165 214 212 153 229 222 248 262 258 58 14 272 244 246 268 332 327 337 336 326 318 312 311 312 313 320 330 339 345 335 302 197 170 200 188 176 182 181 177 180 183 186 190 191 193 199 202 203 204 205 206 206 204 204 204 204 204 207 212 221 231 235 235 233 228 221 215 205 198 192 186 177 169 162 155 152 145 130 113 99 93 91 89 89 85 78 76 79 81 81 82 81 79 79 76
195 163 156 202 195 207 247 229 242 261 123 79 191 216 226 225 45 8 347 351 342 338 331 317 318 319 309 316 347 1 2 356 350 42 88 133 165 164 172 173 172 173 176 183 188 192 197 201 202 203 205 205 207 208 206 206 206 207 207 209 213 221 230 238 238 236 233 228 223 215 207 201 194 185 174 167 164 163 161 151 131 111 101 96 90 89 86 79 75 79 82 81 81 82 81 81 79
112 46 160 203 199 178 240 296 273 279 144 131 197 226 256 293 334 333 342 350 343 338 329 325 341 342 333 352 13 15 12 9 11 28 55 65 102 144 155 159 165 168 173 181 187 194 201 205 205 207 207 207 210 211 209 209 209 211 212 212 214 220 229 238 241 239 237 234 230 224 216 208 203 192 181 174 171 172 173 167 151 131 118 108 100 95 91 86 79 81 86 85 82 81 81 81 77
134 180 190 177 104 125 130 145 64 21 243 199 176 218 207 213 225 174 146 330 330 336 340 1 6 359 9 19 15 14 14 15 20 27 34 47 72 106 134 151 161 167 172 179 188 197 204 209 210 212 211 212 215 216 214 213 213 216 218 218 219 222 227 235 242 243 241 238 235 231 224 216 209 201 191 183 178 179 181 177 165 150 137 122 112 103 96 91 82 82 88 91 89 88 86 81 74
147 189 169 131 94 92 123 199 95 138 239 216 170 214 195 193 187 159 182 228 233 11 2 20 17 10 15 14 6 8 13 16 27 33 31 36 53 68 86 125 156 169 176 184 192 200 207 211 214 215 216 217 221 221 219 218 217 218 221 222 224 226 229 234 240 244 243 241 239 237 232 224 216 208 200 191 185 185 186 185 178 167 156 143 128 114 101 93 83 80 85 87 88 91 91 84 75
351 170 132 134 217 199 165 193 170 204 234 214 182 207 220 217 189 163 186 198 170 49 18 28 27 19 9 359 359 5 8 13 28 38 37 36 46 60 68 72 87 149 176 186 193 199 206 213 217 219 221 222 225 226 225 224 223 221 222 225 226 228 231 233 237 242 243 242 242 241 239 233 223 214 206 199 193 192 193 191 187 180 172 165 153 136 115 99 85 81 84 84 81 84 88 86 77
63 123 119 39 269 230 192 183 200 219 224 207 196 203 214 216 182 169 184 191 180 148 73 52 38 25 9 353 353 360 6 11 22 37 46 46 47 57 71 75 72 72 123 169 186 194 204 215 220 224 227 228 228 230 231 231 230 227 227 229 230 229 230 232 235 239 242 244 244 242 242 238 229 221 213 206 200 199 201 199 193 187 183 178 171 161 146 121 96 87 87 85 79 74 77 74 65
144 170 173 167 126 356 227 171 86 232 208 179 202 221 207 174 170 176 177 178 178 164 128 101 65 36 19 2 352 357 8 13 19 29 39 47 51 57 69 77 78 75 74 85 113 156 200 218 224 230 233 233 232 234 235 236 237 235 233 234 234 234 233 232 233 236 239 243 244 242 242 240 233 226 219 213 206 204 207 204 196 190 188 182 173 167 156 139 121 103 91 84 79 70 64 58 47
236 215 205 178 152 167 207 204 170 224 229 184 189 231 214 127 159 185 167 162 166 167 173 131 85 46 11 5 357 359 7 13 21 25 29 35 40 48 59 68 73 73 68 66 69 71 70 79 238 247 243 239 237 238 239 241 242 241 239 237 238 240 239 235 233 233 236 240 242 241 240 239 234 228 224 218 212 210 209 204 196 190 187 180 173 167 157 142 130 116 102 94 89 75 56 43 34